Redmond, OR

9:07 PM PST on December 14, 2019 (GMT -0800)
Roberts Field Airport

Weather History for KRDM - November, 2019

Change the Weather History Date:

Saturday, November 16, 2019

  Actual Average Record
Temperature  
Mean Temperature 42 °F 37 °F  
Max Temperature 61 °F 49 °F 70 °F (2008)
Min Temperature 23 °F 26 °F -19 °F (2014)
Degree Days  
Heating Degree Days 23 28  
Month to date heating degree days 328 404  
Since 1 July heating degree days 1247 1349  
Cooling Degree Days 0 0  
Month to date cooling degree days 0 0  
Year to date cooling degree days 293 222  
Moisture  
Dew Point 29 °F    
Average Humidity 62    
Maximum Humidity 92    
Minimum Humidity 32    
Precipitation  
Precipitation 0.00 in 0.03 in 0.84 in (1981)
Month to date precipitation T 0.49  
Year to date precipitation 9.27 7.27  
Sea Level Pressure  
Sea Level Pressure 30.32 in    
Wind  
Wind Speed 4 mph (SE)    
Max Wind Speed 9 mph    
Max Gust Speed 13 mph    
Visibility 10 miles    
Events      
T = Trace of Precipitation, MM = Missing Value Source: NWS Daily Summary

Daily Weather History Graph

Daily Weather History Graph

Search for Another Location

Airport or City:

Astronomy

Nov. 16, 2019 Rise Set
Actual Time 7:01 AM PST 4:36 PM PST
Civil Twilight 6:30 AM PST 5:08 PM PST
Nautical Twilight 5:54 AM PST 5:43 PM PST
Astronomical Twilight 5:20 AM PST 6:17 PM PST
Moon 8:11 PM PST (11/16) 11:04 AM PST (11/16)
Length of Visible Light 10h 38m
Length of Day
9h 35m
Waning Gibbous, 81% of the Moon is Illuminated
Nov 16
Waning Gibbous
Nov 19
Last Quarter
Nov 26
New
Dec 3
First Quarter
Dec 11
Full

Hourly Weather History & Observations

Time (PST) Temp. Windchill Dew Point Humidity Pressure Visibility Wind Dir Wind Speed Gust Speed Precip Events Conditions
12:56 AM 35.1 °F 32.2 °F 30.0 °F 82% 30.30 in 10.0 mi SSE 3.5 mph - N/A   Clear
1:56 AM 34.0 °F - 28.9 °F 82% 30.32 in 10.0 mi Calm Calm - N/A   Clear
2:56 AM 30.9 °F 27.5 °F 27.0 °F 85% 30.33 in 10.0 mi ENE 3.5 mph - N/A   Clear
3:56 AM 30.9 °F 26.2 °F 28.0 °F 89% 30.34 in 10.0 mi South 4.6 mph - N/A   Clear
4:56 AM 28.0 °F 22.8 °F 26.1 °F 92% 30.36 in 10.0 mi SSE 4.6 mph - N/A   Clear
5:56 AM 27.0 °F 20.5 °F 23.0 °F 85% 30.37 in 7.0 mi South 5.8 mph - N/A   Clear
6:56 AM 25.0 °F 20.7 °F 21.9 °F 88% 30.38 in 10.0 mi South 3.5 mph - N/A   Clear
7:56 AM 30.9 °F - 28.0 °F 89% 30.38 in 10.0 mi Calm Calm - N/A   Clear
8:56 AM 42.1 °F 36.6 °F 32.0 °F 67% 30.36 in 10.0 mi SSE 9.2 mph - N/A   Clear
9:56 AM 46.9 °F - 33.1 °F 59% 30.35 in 10.0 mi ESE 5.8 mph - N/A   Clear
10:56 AM 52.0 °F - 35.1 °F 53% 30.32 in 10.0 mi Variable 4.6 mph - N/A   Clear
11:56 AM 55.9 °F - 32.0 °F 40% 30.31 in 10.0 mi SSE 6.9 mph - N/A   Clear
12:56 PM 57.9 °F - 32.0 °F 37% 30.30 in 10.0 mi SSE 5.8 mph - N/A   Clear
1:56 PM 59.0 °F - 32.0 °F 36% 30.28 in 10.0 mi SE 4.6 mph - N/A   Clear
2:56 PM 60.1 °F - 30.9 °F 33% 30.27 in 10.0 mi South 4.6 mph - N/A   Clear
3:56 PM 60.1 °F - 30.0 °F 32% 30.27 in 10.0 mi East 4.6 mph - N/A   Clear
4:56 PM 48.9 °F - 28.9 °F 46% 30.30 in 10.0 mi East 3.5 mph - N/A   Clear
5:56 PM 46.9 °F - 28.9 °F 50% 30.32 in 10.0 mi Calm Calm - N/A   Clear
6:56 PM 42.1 °F 40.2 °F 28.0 °F 58% 30.33 in 10.0 mi South 3.5 mph - N/A   Clear
7:56 PM 39.0 °F - 28.0 °F 65% 30.34 in 10.0 mi Calm Calm - N/A   Clear
8:56 PM 39.0 °F - 28.0 °F 65% 30.32 in 10.0 mi Calm Calm - N/A   Clear
9:56 PM 37.9 °F 35.5 °F 28.0 °F 68% 30.30 in 10.0 mi ESE 3.5 mph - N/A   Clear
10:56 PM 34.0 °F 31.0 °F 26.1 °F 73% 30.30 in 10.0 mi ESE 3.5 mph - N/A   Clear
11:56 PM 35.1 °F 29.3 °F 27.0 °F 72% 30.30 in 10.0 mi ENE 6.9 mph - N/A   Clear